Location: Cella
(44.7333°N, 10.5667°E)
Time: 11:21:39
(UTC+00:00)

Cosmos 2333 Rocket - Pass Details

Date: 03 March 2021
Orbit: 837 x 864 km, 70.8° (Epoch: 18 April)

Event Time Altitude Azimuth Distance (km) Brightness Sun altitude
Rises 20:31:11 0° 239° (WSW) 3,394 5.7 -35.6°
Reaches altitude 10° 20:33:58 10° 251° (WSW) 2,467 5.0 -36.0°
Maximum altitude 20:38:47 28° 309° (NW) 1,545 4.0 -36.8°
Drops below altitude 10° 20:43:41 10° 8° (N) 2,495 4.9 -37.5°
Sets 20:46:31 0° 20° (NNE) 3,439 5.5 -37.9°
